Home   Weather   Olean   Past weeks
Flag for USA

Past Weather in Olean, New York, USA — Yesterday and Last 2 Weeks

Now
32 °F

Passing clouds.


Feels Like: 26 °F
Forecast: 47 / 30 °F
Wind: 7 mph from Northwest

Location: Olean Municipal

Current Time: Apr 2, 2020 at 5:48:18 am

Latest Report: Apr 2, 2020 at 5:15 am


Visibility: 10 mi

Pressure: 29.89 "Hg

Humidity: 69%

Dew Point: 23 °F

Location of OleanLocation

Past Weather in Olean — Graph

°F

Olean Temperature Yesterday

Maximum temperature yesterday: 41 °F (at 1:35 pm)
Minimum temperature yesterday: 32 °F (at 2:55 am)
Average temperature yesterday: 35 °F

High & Low Weather Summary for the Past Weeks

 TemperatureHumidityPressure
High61 °F (Mar 20, 6:15 am)100% (Mar 18, 5:15 am)30.57 "Hg (Mar 18, 5:15 am)
Low14 °F (Mar 22, 3:55 am)23% (Mar 22, 5:55 pm)29.60 "Hg (Mar 29, 3:15 pm)
Average38 °F87%30.01 "Hg
* Reported Mar 18 4:15 am — Apr 2 4:35 am, Olean. Weather by CustomWeather, © 2020

Note: Actual official high and low records may vary slightly from our data, if they occured in-between our weather recording intervals... More about our weather records

Olean Weather History for the Previous 24 Hours

Scroll right to see more
 ConditionsComfort  
Time TempWeatherWind HumidityBarometerVisibility
4:35 am
Thu, Apr 2
32 °FPassing clouds.7 mph69%29.89 "Hg10 mi
4:15 am32 °FClear.8 mph69%29.89 "Hg10 mi
3:35 am32 °FClear.7 mph64%29.89 "Hg10 mi
3:15 am32 °FClear.8 mph64%29.89 "Hg10 mi
2:55 am32 °FClear.9 mph69%29.89 "Hg10 mi
12:55 am32 °FPassing clouds.3 mph64%29.90 "Hg10 mi
12:35 am32 °FClear.5 mph64%29.90 "Hg10 mi
12:15 am32 °FClear.3 mph64%29.90 "Hg10 mi
11:55 pm
Wed, Apr 1
32 °FPassing clouds.5 mph64%29.91 "Hg10 mi
11:35 pm32 °FPassing clouds.7 mph64%29.91 "Hg10 mi
11:15 pm32 °FPassing clouds.6 mph64%29.91 "Hg10 mi
10:55 pm32 °FClear.3 mph60%29.91 "Hg10 mi
10:35 pm32 °FClear.No wind60%29.91 "Hg10 mi
10:15 pm32 °FClear.No wind60%29.91 "Hg10 mi
9:35 pm34 °FClear.3 mph56%29.91 "Hg10 mi
8:55 pm34 °FClear.5 mph56%29.91 "Hg10 mi
8:15 pm34 °FClear.3 mph56%29.90 "Hg10 mi
7:55 pm34 °FClear.3 mph56%29.89 "Hg10 mi
7:35 pm36 °FSunny.6 mph52%29.89 "Hg10 mi
7:15 pm36 °FSunny.5 mph52%29.89 "Hg10 mi
6:55 pm37 °FSunny.9 mph48%29.88 "Hg10 mi
6:35 pm39 °FSunny.9 mph45%29.88 "Hg10 mi
6:15 pm39 °FSunny.7 mph48%29.88 "Hg10 mi
5:55 pm39 °FSunny.9 mph48%29.88 "Hg10 mi
5:35 pm41 °FSunny.7 mph45%29.87 "Hg10 mi
5:15 pm41 °FSunny.12 mph45%29.87 "Hg10 mi
4:55 pm41 °FSunny.13 mph45%29.87 "Hg10 mi
4:35 pm41 °FSunny.9 mph45%29.86 "Hg10 mi
4:15 pm41 °FSunny.12 mph49%29.87 "Hg10 mi
3:55 pm41 °FScattered clouds.14 mph49%29.86 "Hg10 mi
3:35 pm41 °FScattered clouds.10 mph49%29.86 "Hg10 mi
2:55 pm41 °FPartly sunny.8 mph57%29.86 "Hg10 mi
2:35 pm41 °FScattered clouds.13 mph53%29.86 "Hg10 mi
2:15 pm41 °FScattered clouds.8 mph57%29.87 "Hg10 mi
1:55 pm39 °FPartly sunny.5 mph52%29.87 "Hg10 mi
1:35 pm41 °FScattered clouds.10 mph57%29.87 "Hg10 mi
12:55 pm37 °FPartly sunny.7 mph65%29.88 "Hg10 mi
12:35 pm39 °FBroken clouds.10 mph65%29.88 "Hg10 mi
12:15 pm39 °FBroken clouds.12 mph70%29.88 "Hg10 mi
11:55 am36 °FMostly cloudy.7 mph87%29.88 "Hg10 mi
11:35 am34 °FOvercast.7 mph93%29.88 "Hg10 mi
11:15 am34 °FOvercast.9 mph93%29.88 "Hg10 mi
10:55 am34 °FOvercast.13 mph93%29.88 "Hg10 mi
10:35 am36 °FOvercast.9 mph87%29.87 "Hg10 mi
10:15 am36 °FMostly cloudy.9 mph87%29.86 "Hg10 mi
9:55 am34 °FMostly cloudy.8 mph93%29.86 "Hg10 mi
9:35 am34 °FOvercast.5 mph100%29.85 "Hg10 mi
9:15 am32 °FMore clouds than sun.6 mph100%29.85 "Hg10 mi
8:55 am32 °FPartly sunny.6 mph100%29.85 "Hg10 mi
8:35 am32 °FScattered clouds.3 mph100%29.85 "Hg10 mi
8:15 am32 °FSunny.No wind100%29.85 "Hg10 mi
7:55 am32 °FSunny.No wind100%29.84 "Hg10 mi
7:35 am32 °FScattered clouds.No wind100%29.84 "Hg10 mi
7:15 am32 °FMostly cloudy.No wind100%29.83 "Hg10 mi
6:55 am32 °FMore clouds than sun.No wind100%29.83 "Hg10 mi
6:35 am32 °FOvercast.5 mph100%29.83 "Hg10 mi
6:15 am32 °FMostly cloudy.3 mph100%29.83 "Hg10 mi
5:55 am32 °FMostly cloudy.5 mph100%29.83 "Hg10 mi
5:35 am32 °FLow clouds.6 mph100%29.83 "Hg10 mi
5:15 am32 °FLow clouds.5 mph100%29.82 "Hg10 mi
Weather by CustomWeather, © 2020

See weather overview

Advertising